Other Public Products
Issued by NWS Grand Forks, ND

Home | Current Version | Previous Version | Graphics & Text | Print | Product List | Glossary On
Versions: 1 2 3 4 5 6 7 8 9 10 11 12 13 14 15 16 17 18 19 20 21 22 23 24 25 26 27 28 29 30 31 32 33 34 35 36 37 38 39 40 41 42 43 44 45 46 47 48 49 50
717
FPUS83 KFGF 251031
OPUFGF
PRAIRIE TO PINES WEATHER ROUNDUP
NATIONAL WEATHER SERVICE EASTERN NORTH DAKOTA/GRAND FORKS ND
400 AM CST SAT FEB 25 2017

 **SATELLITE DATA USED TO AUGMENT SKY COVER AT AUTOMATED STATIONS**
 *****  WEATHER ACROSS EASTERN NORTH DAKOTA  *****

CITY           SKY/WX    TMP DP  RH WIND       PRES   REMARKS
GRAND FORKS    CLOUDY    19  11  70 SW3       29.99F
GRAND FORKS AF FLURRIES  19  14  79 SW8       29.97F WCI   9
GRAND CITY NWS NOT AVBL
BUXTON         NOT AVBL
DEVILS LAKE    CLOUDY    20  16  84 SW8       29.94F WCI  10
FARGO          FAIR      14  11  87 S5        30.02F WCI   6
WAHPETON ARPT  FAIR      18  12  79 NW5       30.02F WCI  11
$$

 *****  WEATHER ACROSS CENTRAL AND WESTERN NORTH DAKOTA  *****

CITY           SKY/WX    TMP DP  RH WIND       PRES   REMARKS
JAMESTOWN      FAIR      15  11  83 W6        29.97F WCI   6
BISMARCK       CLOUDY    17  14  88 CALM      29.98F
MINOT          MOCLDY    23  18  81 W8        29.91F WCI  14
MINOT AFB      FAIR      21  18  88 W12       29.91F WCI   9
GARRISON         N/A     21  17  84 W7        29.93F WCI  12
WILLISTON      CLOUDY    22  19  89 CALM      29.95F
DICKINSON      CLOUDY    20  14  77 W5        29.90F WCI  13
HETTINGER      CLOUDY    20  15  81 SW5       29.95F WCI  13
$$

 *****  OTHER OBSERVATIONS NORTHEAST NORTH DAKOTA  *****

CITY           SKY/WX    TMP DP  RH WIND       PRES   REMARKS
WALHALLA       NOT AVBL
LANGDON        NOT AVBL
CAVALIER       FLURRIES  18  16  93 S6        29.95F WCI   9
GRAFTON        PTSUNNY   18  16  93 S7        29.99F WCI   8
CANDO          NOT AVBL
FORT TOTTEN      N/A     20  18  91 SW5       29.95S WCI  13
ROLLA          PTSUNNY   18  16  93 W10       29.88F WCI   6
RUGBY          LGT SNOW  18  18 100 SW10      29.91F WCI   6
 ***** THE ABOVE OBSERVATIONS ARE NON NWS ARE NOT QUALITY
        CONTROLLED AND MAY MIS-REPORT RAIN FOR SNOW...
$$

 *****  OTHER OBSERVATIONS SOUTHEAST NORTH DAKOTA *****

CITY           SKY/WX    TMP DP  RH WIND       PRES   REMARKS
COOPERSTOWN    CLOUDY    19  18  93 SW9       29.96F WCI   9
VALLEY CITY    CLOUDY    16  16 100 W9        29.99F WCI   4
OAKES          NOT AVBL
GWINNER        FAIR      18  16  93 SW9       30.01F WCI   6
SHEYENNE NWR     N/A     10   6  85 W2        29.95S
BUFFALO        NOT AVBL
WYNDMERE         N/A     18  16  93 W5          N/A  WCI  11
 ***** THE ABOVE OBSERVATIONS ARE NON NWS ARE NOT QUALITY
       CONTROLLED AND MAY MIS-REPORT RAIN FOR SNOW...
$$

  *****  WEATHER ACROSS NORTHERN MINNESOTA  *****

CITY           SKY/WX    TMP DP  RH WIND       PRES   REMARKS
FLAG ISLAND    FAIR       3   0  85 NW10      29.93F WCI -12
WARROAD        FAIR       5   1  85 W6        29.95F WCI  -6
ROSEAU         FAIR       3   0  85 CALM      29.95F
HALLOCK        CLOUDY    12  10  92 S6        29.96F WCI   3
THF RVR FALLS  FAIR       9   7  92 SW5       29.99F WCI   1
HALSTAD          N/A     17  12  82 SW2         N/A
FOSSTON        FAIR       7   5  92 W5        29.97S WCI  -2
BAUDETTE       FAIR       3  -2  79 NW8       29.93F WCI -10
WASKISH        FAIR       5   1  85 W6        29.92F WCI  -6
CROOKSTON      CLOUDY    16  12  86 SW5       30.00F WCI   9
$$
  *****  WEATHER ACROSS CENTRAL AND WEST MINNESOTA  *****

CITY           SKY/WX    TMP DP  RH WIND       PRES   REMARKS
BEMIDJI        FAIR       5   1  84 W8        29.93S WCI  -8
PARK RAPIDS    FAIR       8  -1  66 NW10      29.93F WCI  -6
WADENA         FAIR      10   3  72 NW9       29.94F WCI  -2
DETROIT LAKES  FAIR      12  10  92 NW7       29.97F WCI   2
MOORHEAD       FAIR      16  12  86 CALM      30.02F
FERGUS FALLS   FAIR      12  10  92 NW6       30.06S WCI   3
ELBOW LAKE     FAIR      15  10  80 W9        30.00S WCI   3
MORRIS MN      FAIR      16  12  86 NW10      30.00S WCI   3
STAPLES        FAIR      10   1  67 NW12      29.94S WCI  -4
WHEATON        FAIR      16  12  86 W8        30.05S WCI   5
$$
  *****  WEATHER ELSEWHERE ACROSS MINNESOTA  *****

CITY           SKY/WX    TMP DP  RH WIND       PRES   REMARKS
DULUTH         MOCLDY     8   3  80 NW15G22   29.78R WCI  -9
INTRNTL FALLS  FAIR       3  -2  79 NW7       29.88F WCI  -9
ELY            CLOUDY     7   1  78 NW13G20   29.78S WCI  -9
CLOQUET        FAIR       9   1  72 NW10G17   29.81S WCI  -6
BRAINERD       FAIR      10   2  69 NW12      29.92F WCI  -5
HIBBING        FAIR       5   0  79 NW16      29.83F WCI -14
ALEXANDRIA     FAIR      13   5  70 NW13      29.96F WCI  -2
SAINT CLOUD    FAIR      14   5  67 NW12      29.93S WCI   0
MINNEAPOLIS    FAIR      16   4  59 NW16      29.90S WCI   1
$$

  *****  WEATHER ACROSS SOUTH DAKOTA  *****

CITY           SKY/WX    TMP DP  RH WIND       PRES   REMARKS
SIOUX FALLS    FAIR      15  13  91 NW12      30.04F WCI   2
BROOKINGS      FAIR      14  11  87 W5        30.02F WCI   6
WATERTOWN      FAIR      14  11  87 NW7       30.01F WCI   4
HURON          MOCLDY    15  13  91 CALM      30.07F
SISSETON         N/A     16  12  84 NW7       30.02F WCI   6
ABERDEEN       FAIR      12   8  84 SW6       30.05F WCI   3
MITCHELL       FAIR      17  13  84 W7        30.09F WCI   8
PIERRE         CLOUDY    20  15  81 S3        30.03F
MOBRIDGE       CLOUDY    23  16  74 S3        29.98F
RAPID CITY     CLOUDY    15  10  80 W7        29.95F WCI   5
$$

  *****  SOME WEATHER IN NEARBY STATES *****

CITY           SKY/WX    TMP DP  RH WIND       PRES   REMARKS
GLASGOW MT     CLOUDY    20  18  92 W3        29.97S
GREAT FALLS MT MOCLDY    19  15  84 SW12      29.95F WCI   7
CHEYENNE WY    FAIR      11   1  64 W10       29.90F WCI  -3
SCOTTSBLUFF NE FAIR       2  -3  80 N5        29.98F WCI  -8
OMAHA NE       FAIR      19  12  74 NW12      30.09S WCI   7
DES MOINES IA  MOCLDY    19  12  74 NW16      29.98S WCI   4
DAVENPORT IA   FAIR      20  15  81 NW23      29.81R WCI   3
CHICAGO IL     CLOUDY    27  18  69 NW22G30   29.64R WCI  13
EAU CLAIRE WI  FAIR      13   4  67 NW13      29.78S WCI  -2
LA CROSSE WI   MOCLDY    20  10  65 NW22      29.80R WCI   3
$$

  *****  SOME NATIONAL WEATHER *****

CITY           SKY/WX    TMP DP  RH WIND       PRES   REMARKS
LA GUARDIA NY  FOG       52  51  97 S3        29.79F VSB 1/4
RALEIGH NC     FAIR      60  57  89 S7        29.77S
ATLANTA GA     MOCLDY    62  59  90 SW10      29.76R
NEW ORLEANS LA FAIR      64  53  67 N15       29.92R
OKLAHOMA CITY  FAIR      26  17  68 N12       30.18S WCI  16
ALBUQUERQUE NM FAIR      30   0  27 CALM      30.08F
SALT LAKE CITY MOCLDY    23  12  62 SE8       30.12F WCI  14
LOS ANGELES CA FAIR      46  39  76 E5        30.15F
BOISE ID       FAIR      24  15  68 SE6       30.15S WCI  17
SEATTLE WA     CLOUDY    37  28  70 SE6       30.25R
$$

*** WEATHER ACROSS MANITOBA...SASKATCHEWAN AND ONTARIO ***
                ***ONTARIO***

CITY           SKY/WX    TMP DP  RH WIND       PRES   REMARKS
GERALDTON      LGT SNOW   3   0  85 N10       29.65F WCI -12
THUNDER BAY    CLOUDY    12   5  73 NW10G18   29.72S WCI  -1
SIOUX LOOKOUT  FLURRIES   9   3  78 NW6       29.81F WCI  -1
TORONTO        FOG       41  39  93 SE9       29.44F VSB 3/8
BIG TROUT LK   PTCLDY   -13 -18  77 N5        29.89F WCI -25
PICKLE LAKE    NOT AVBL
DRYDEN         PTCLDY     5   1  85 W6        29.82F WCI  -6
KENORA         CLEAR      1  -2  85 NW7       29.89F WCI -11
$$
                *** MANITOBA***

CITY           SKY/WX    TMP DP  RH WIND       PRES   REMARKS
BRANDON        FOG        1  -2  85 NW5       29.90F VSB 1/2 WCI  -8
DAUPHIN        FLURRIES  16  12  86 N3        29.91F
ISLAND LAKE    FLURRIES  -6  -9  84 W3        29.90F
PILOT MOUND      N/A     14  10  85 SW5         N/A  WCI   6
THE PAS        FLURRIES   5   0  78 W15       29.94F WCI -13
THOMPSON       CLEAR    -22 -27  76 W2        29.92
WINNIPEG       CLOUDY    12   9  85 S8        29.94F WCI   1
LYNN LAKE      FLURRIES -11 -15  84 W7        29.89F WCI -26
CHURCHILL      MOCLDY   -11 -17  77 S7        29.98F WCI -26
GILLAM         CLEAR    -18 -22  83 N2        29.94F
$$
                ***SASKATCHEWAN***

CITY           SKY/WX    TMP DP  RH WIND       PRES   REMARKS
ESTEVAN        FOG       18  16  93 NW9       29.94F VSB 1/4 WCI   6
KINDERSLEY     PTCLDY     7   3  85 NW5       30.01F WCI  -2
LLOYDMINSTER   MOCLDY     1  -2  85 SW7       29.98F WCI -11
PRINCE ALBERT  FLURRIES   3  -6  66 NW9G17    30.03F WCI -11
REGINA         FLURRIES  14  12  92 N10G17    29.97F WCI   1
YORKTON        CLOUDY    12   7  79 NW15      29.93S WC



USA.gov is the U.S. government's official web portal to all federal, state and local government web resources and services.